Clam Gulch, AK (99568)

9:09 PM AKDT on August 27, 2016 (GMT -0800)
mile 16.05 Oilwell Rd. | | Change Station

Elev 1161 ft 60.02 °N, 151.33 °W | Updated 11 minutes ago

Clear
Clear
62.2 °F
Feels Like 62.2 °F
N
4.7
Wind Variable Wind from North

Today
High -- | Low -- °F
--% Chance of Precip.
Yesterday
High -- | Low -- °F
Precip. -- in
Pressure 29.99 in
Visibility 10.0 miles
Clouds Clear
Dew Point 48 °F
Humidity 59%
Rainfall 0.00 in
Snow Depth Not available.
6:49 AM 9:22 PM
Waning Crescent, 18% visible
METAR PASX 280456Z AUTO 26005KT 10SM CLR 17/11 A2999 RMK AO1
Pressure 29.99 in
Visibility 10.0 miles
Clouds Clear
Dew Point 48 °F
Humidity 59%
Rainfall 0.00 in
Snow Depth Not available.
6:49 AM 9:22 PM
Waning Crescent, 18% visible
METAR PASX 280456Z AUTO 26005KT 10SM CLR 17/11 A2999 RMK AO1

10-Day Weather Forecast

Almanac

Astronomy

Aug. 27, 2016 Rise Set
Actual Time
Civil Twilight
Nautical Twilight
Astronomical Twilight
Moon
Length of Visible Light
Length of Day
Tomorrow will be .
, % of the Moon is Illuminated

Today's Extremes

State Highs State Lows

Community

WunderPhotos

Upload Photos

1,935,530 photos uploaded!

WunderBlog® & News

Nearby

Air Quality

  Air Quality AQ Index Pollutant
Not available.

Snow Depth

Station Depth Elevation

Earthquake Activity

City Distance Mag. Time & Date
Minimum magnitude displayed is 2.5.

Coastal Water Temperatures

Place Temperature

Stations

Nearby Weather Stations

Station Location Temp. Windchill Dew Point Humidity Wind Precip. Elev Updated Type
                   

Watches & Warnings

There are currently no watches in effect.